Terug naar catalogus

COSMOS 2251 DEB

ActiefLEO
NORAD 40239·DEBRIS·🇷🇺 Russia

Gelanceerd Jun 16, 1993 vanaf Plesetsk Cosmodrome

Loading…

Volgende Passages (komende 24 uur)

TLE

VerouderendSource: Space-Track

Epoch: Sep 9, 2026, 23:41 UTC

1 40239U 93036BVU 26252.98707269  .00000835  00000-0  16142-3 0  9997
2 40239  74.0282 115.9398 0085144 160.2234 267.9449 14.62793324635768

Volg COSMOS 2251 DEB in realtime met AllMySat

Download on the App Store